Torna al catalogo

STARLINK-34370

AttivoComunicazioniVLEO
NORAD 64309·PAYLOAD·🇺🇸 United States

Lanciato Jun 8, 2025 da Vandenberg Space Force Base

Loading…

Prossimi Passaggi (prossime 24 ore)

TLE

AggiornatoSource: CelesTrak SupGP

Epoca: Sep 14, 2026, 21:33 UTC

1 64309C 25123U   26257.89840278  .00029760  00000+0  10354-2 0  2578
2 64309  70.0001  75.8339 0003233 274.0560 287.8505 15.29559756    12

Traccia STARLINK-34370 in tempo reale con AllMySat

Download on the App Store